Location: アルンシュタイン
(50.0000°N, 10.0000°E)
Time: 04:12:29
(UTC+01:00)

Envisat - Pass Details

Date: 28 October 2021
Orbit: 764 x 766 km, 98.2° (Epoch: 28 November)

Event Time Altitude Azimuth Distance (km) Brightness Sun altitude
Rises 18:26:38 0° 198° (SSW) 3,221 6.7 -4.4°
Reaches altitude 10° 18:29:16 10° 210° (SSW) 2,300 6.2 -4.8°
Maximum altitude 18:33:31 27° 267° (W) 1,456 5.6 -5.4°
Drops below altitude 10° 18:37:48 10° 325° (NW) 2,314 5.8 -6.1°
Sets 18:40:29 0° 337° (NNW) 3,246 6.4 -6.5°
